Regional Weather Roundup
Issued by NWS State College, PA

Home | Current Version | Previous Version | Text Only | Print | Product List | Glossary Off
Versions: 1 2 3 4 5 6 7 8 9 10 11 12 13 14 15 16 17 18 19 20 21 22 23 24 25 26 27 28 29 30 31 32 33 34 35 36 37 38 39 40 41 42 43 44 45 46 47 48 49 50

000
ASUS41 KCTP 021703
RWRCTP

REGIONAL WEATHER ROUNDUP
NATIONAL WEATHER SERVICE STATE COLLEGE PA
100 PM EDT TUE JUN 02 2015

Note: "fair" indicates few or no clouds below 12,000 feet with no
significant weather and/or obstructions to visibility.

* = STATION THAT DOES NOT REPORT PRECIPITATION /E.G. RAIN...SNOW...ETC/
    THUNDER OR FOG.

PAZ002>004-007>009-013>016-020>023-029>032-021800-
WESTERN PENNSYLVANIA

CITY           SKY/WX    TMP DP  RH WIND       PRES   REMARKS
ERIE           MOSUNNY   59  48  67 N17       30.20S
MEADVILLE      PTSUNNY   63  48  58 E12G17    30.17S
FRANKLIN*      PTSUNNY   63  48  59 E9        30.18S
NEW CASTLE     CLOUDY    61  54  77 N8        30.17F
BEAVER COUNTY  CLOUDY    57  50  77 NE6       30.16S
BUTLER*        CLOUDY    59  50  72 E8        30.17S
PITTSBURGH INT CLOUDY    61  51  70 NE8       30.15S
PITTSBURGH     CLOUDY    58  49  72 VRB5      30.14S
INDIANA*       CLOUDY    59  54  82 E5        30.18F
LATROBE        CLOUDY    57  55  94 NE9       30.16S
WASHINGTON CO* CLOUDY    61  52  72 N6        30.16S
$$

PAZ004>006-010>012-017>019-024>028-033>037-041-042-045-046-049>053-021800-
CENTRAL PENNSYLVANIA

CITY           SKY/WX    TMP DP  RH WIND       PRES   REMARKS
BRADFORD       MOSUNNY   58  46  64 NE12      30.18F
DUBOIS         CLOUDY    62  50  64 NE10      30.16S
CLEARFIELD     CLOUDY    60  52  74 E6        30.16S
JOHNSTOWN      CLOUDY    54  52  93 NE9       30.14S
ALTOONA        RAIN      56  53  90 NE5       30.16S FOG
STATE COLLEGE  CLOUDY    55  54  94 E6        30.16S
WILLIAMSPORT   CLOUDY    61  51  70 N7        30.16R
SELINSGROVE    RAIN      58  55  90 NE3       30.17R FOG
FT INDIANTOWN  LGT RAIN  55  53  94 N6        30.15S
CAPITAL CITY   RAIN      56  53  90 N6        30.15S FOG
HARRISBURG     LGT RAIN  56  53  90 N6        30.14S FOG
YORK           LGT RAIN  56  54  93 NE8       30.14R
$$

PAZ038>040-043-044-047-048-054-055-060>062-067>071-021800-
EASTERN PENNSYLVANIA

CITY           SKY/WX    TMP DP  RH WIND       PRES   REMARKS
SCRANTON       CLOUDY    56  51  84 SE3       30.15F
MOUNT POCONO   RAIN      51  47  86 NE5       30.17R FOG
ALLENTOWN      HVY RAIN  54  50  87 N6        30.16R FOG
QUAKERTOWN*    CLOUDY    52  50  93 N3        30.16R
READING        LGT RAIN  53  51  93 N6        30.14S FOG
LANCASTER      LGT RAIN  54  52  93 NE8       30.14S
COATESVILLE    LGT RAIN  54  54 100 NE7       30.13S
POTTSTOWN      LGT RAIN  54  53  97 NE7       30.15S
BLUE BELL      CLOUDY    54  54 100 NE3       30.13S
DOYLESTOWN     LGT RAIN  53  52  96 NE7       30.13S
WILLOW GROVE   NOT AVBL
NORTH PHILA    LGT RAIN  56  50  80 NE8       30.15R
PHILADELPHIA   LGT RAIN  56  51  84 NE10      30.13S
$$



USA.gov is the U.S. government's official web portal to all federal, state and local government web resources and services.